Location: ???? ?????????
(31.1304°N, 31.7111°E)
Time: 01:21:34
(UTC+00:00)

Cosmos 2263 Rocket - Visible Passes

Search period start: 01 March 2021 00:00
Search period end: 11 March 2021 00:00
Orbit: 825 x 847 km, 71.0° (Epoch: 28 February)

Date Brightness Start Highest point End Pass type
(mag) Time Alt. Az. Time Alt. Az. Time Alt. Az.
01 Mar 2.1 16:45:23 10° NNW 16:50:58 83° ENE 16:56:32 10° SSE visible
02 Mar 2.1 16:28:37 10° NNW 16:34:11 75° ENE 16:39:44 10° SSE visible
03 Mar 2.2 16:11:52 10° NNW 16:17:24 68° ENE 16:22:56 10° SSE visible
03 Mar 5.3 17:59:07 10° W 18:00:37 11° W 18:02:07 10° WSW visible
04 Mar 5.2 17:41:37 10° WNW 17:43:53 13° W 17:46:10 10° WSW visible
05 Mar 5.2 17:24:21 10° WNW 17:27:10 14° W 17:29:58 10° SW visible
06 Mar 5.1 17:07:13 10° WNW 17:10:26 16° W 17:13:40 10° SW visible
07 Mar 5.1 16:50:08 10° WNW 16:53:42 18° W 16:57:17 10° SW visible
08 Mar 5.1 16:33:06 10° NW 16:36:59 20° W 16:40:51 10° SW visible
09 Mar 5.1 16:16:06 10° NW 16:20:15 22° W 16:24:23 10° SSW visible
10 Mar 5.1 03:33:49 10° SE 03:37:46 20° E 03:41:43 10° NE visible
